Moffett NAS, CA

1:51 PM PST on February 21, 2018 (GMT -0800)
Moffett Federal Air Field

Weather History for KNUQ - February, 2007

Change the Weather History Date:

Saturday, February 17, 2007

  Actual Average Record
Temperature  
Mean Temperature 62 °F 54 °F  
Max Temperature 73 °F 62 °F 76 °F (1977)
Min Temperature 51 °F 46 °F 34 °F (1956)
Degree Days  
Heating Degree Days 2    
Month to date heating degree days  
Since 1 July heating degree days  
Cooling Degree Days 0    
Month to date cooling degree days  
Year to date cooling degree days  
Growing Degree Days 12 (Base 50)    
Moisture  
Dew Point 45 °F    
Average Humidity 58    
Maximum Humidity 89    
Minimum Humidity 37    
Precipitation  
Precipitation 0.00 in 0.12 in 0.97 in (1986)
Month to date precipitation 1.81  
Year to date precipitation 4.56  
Sea Level Pressure  
Sea Level Pressure 30.15 in    
Wind  
Wind Speed 6 mph (NNW)    
Max Wind Speed 12 mph    
Max Gust Speed -    
Visibility 10 miles    
Events      
T = Trace of Precipitation, MM = Missing Value Source: NWS Daily Summary

Daily Weather History Graph

Daily Weather History Graph

Search for Another Location

Airport or City:

Trip Planner

Search our weather history database for the weather conditions in past years. The results will help you decide how hot, cold, wet, or windy it might be!

Date:

Astronomy

Feb. 17, 2007 Rise Set
Actual Time 6:55 AM PST 5:49 PM PST
Civil Twilight 6:28 AM PST 6:16 PM PST
Nautical Twilight 5:58 AM PST 6:46 PM PST
Astronomical Twilight 5:27 AM PST 7:17 PM PST
Moon 7:06 AM PST (2/17) 6:11 PM PST (2/17)
Length of Visible Light 11h 47m
Length of Day
10h 54m
New Moon, 0% of the Moon is Illuminated
Feb 17
New Moon
Feb 23
First Quarter
Mar 3
Full
Mar 11
Last Quarter
Mar 18
New

Hourly Weather History & Observations

Time (PST) Temp. Dew Point Humidity Pressure Visibility Wind Dir Wind Speed Gust Speed Precip Events Conditions
12:56 AM 57.9 °F 44.1 °F 60% 30.26 in 10.0 mi SSE 3.5 mph - N/A   Clear
1:56 AM 55.0 °F 43.0 °F 64% 30.26 in 10.0 mi Calm Calm - N/A   Clear
2:56 AM 57.0 °F 46.0 °F 67% 30.22 in 10.0 mi NNW 9.2 mph - N/A   Clear
3:56 AM 61.0 °F 42.1 °F 50% 30.23 in 10.0 mi Variable 4.6 mph - N/A   Clear
4:56 AM 61.0 °F 42.1 °F 50% 30.22 in 10.0 mi North 5.8 mph - N/A   Clear
5:56 AM 55.9 °F 42.1 °F 60% 30.21 in 10.0 mi Variable 3.5 mph - N/A   Clear
6:56 AM 57.0 °F 42.1 °F 57% 30.22 in 10.0 mi WNW 6.9 mph - N/A   Clear
7:56 AM 60.1 °F 42.1 °F 51% 30.22 in 10.0 mi Variable 3.5 mph - N/A   Clear
8:56 AM 64.0 °F 44.1 °F 48% 30.22 in 10.0 mi NNW 5.8 mph - N/A   Clear
9:56 AM 64.9 °F 46.0 °F 50% 30.22 in 10.0 mi North 5.8 mph - N/A   Clear
10:56 AM 69.1 °F 42.1 °F 38% 30.22 in 10.0 mi North 5.8 mph - N/A   Clear
11:56 AM 70.0 °F 43.0 °F 38% 30.19 in 10.0 mi North 5.8 mph - N/A   Clear
12:56 PM 71.1 °F 45.0 °F 39% 30.15 in 10.0 mi North 9.2 mph - N/A   Clear
1:56 PM 72.0 °F 45.0 °F 38% 30.12 in 10.0 mi North 9.2 mph - N/A   Clear
2:56 PM 73.0 °F 45.0 °F 37% 30.10 in 10.0 mi North 5.8 mph - N/A   Clear
3:56 PM 73.0 °F 46.0 °F 38% 30.08 in 10.0 mi North 6.9 mph - N/A   Clear
4:56 PM 66.9 °F 48.9 °F 52% 30.06 in 10.0 mi NNW 9.2 mph - N/A   Clear
5:56 PM 61.0 °F 50.0 °F 67% 30.06 in 10.0 mi North 10.4 mph - N/A   Clear
6:56 PM 59.0 °F 48.0 °F 67% 30.07 in 10.0 mi North 8.1 mph - N/A   Clear
7:56 PM 54.0 °F 48.9 °F 83% 30.07 in 10.0 mi NNW 11.5 mph - N/A   Clear
8:56 PM 53.1 °F 48.0 °F 83% 30.08 in 10.0 mi North 8.1 mph - N/A   Clear
9:56 PM 53.1 °F 48.9 °F 86% 30.08 in 10.0 mi NNW 5.8 mph - N/A   Clear
10:56 PM 52.0 °F 48.0 °F 86% 30.06 in 10.0 mi North 6.9 mph - N/A   Clear
11:56 PM 51.1 °F 48.0 °F 89% 30.04 in 10.0 mi North 4.6 mph - N/A   Clear